DW7902 Weather Reports


Display with metric or nautical units.
time (UTC)temp
F
wind
direction
speed
MPH
gust
MPH
rain 1hr
in
rain 24hr
in
rain mn
in
humidity
%
barometer
mb
20220627123539 62 0 0.0 0.0 0.00 0.00 0.00 70 1014.8
20220627123057 62 0 0.0 0.0 0.00 0.00 0.00 69 1014.8
20220627122536 63 0 0.0 0.0 0.00 0.00 0.00 69 1014.8
20220627122036 64 0 0.0 0.0 0.00 0.00 0.00 67 1014.7
20220627121553 64 0 0.0 0.0 0.00 0.00 0.00 64 1014.7
20220627121041 65 0 0.0 0.0 0.00 0.00 0.00 64 1014.6
20220627120539 65 0 0.0 0.0 0.00 0.00 0.00 63 1014.6
20220627120058 65 0 0.0 3.0 0.00 0.00 0.00 62 1014.6
20220627115540 65 0 0.0 3.0 0.00 0.00 0.00 62 1014.6
20220627115039 66 138 0.0 4.0 0.00 0.00 0.00 61 1014.6
20220627114556 66 138 2.0 4.0 0.00 0.00 0.00 61 1014.6
20220627114039 66 0 0.0 5.0 0.00 0.00 0.00 61 1014.5
20220627113539 66 0 2.0 5.0 0.00 0.00 0.00 61 1014.5
20220627113058 66 138 1.0 5.0 0.00 0.00 0.00 61 1014.5
20220627112537 66 138 3.0 5.0 0.00 0.00 0.00 60 1014.4
20220627112039 67 138 1.0 5.0 0.00 0.00 0.00 60 1014.4
20220627111552 67 139 3.0 5.0 0.00 0.00 0.00 60 1014.4
20220627111037 67 141 2.0 6.0 0.00 0.00 0.00 60 1014.4
20220627110540 67 132 3.0 6.0 0.00 0.00 0.00 60 1014.5
20220627110055 67 146 2.0 5.0 0.00 0.00 0.00 61 1014.4
20220627105538 67 143 2.0 4.0 0.00 0.00 0.00 61 1014.4
20220627105038 67 143 1.0 4.0 0.00 0.00 0.00 60 1014.3
20220627104548 67 143 2.0 4.0 0.00 0.00 0.00 60 1014.4
20220627104040 67 143 2.0 3.0 0.00 0.00 0.00 60 1014.3
20220627103538 67 143 1.0 3.0 0.00 0.00 0.00 61 1014.3
20220627103059 67 0 1.0 3.0 0.00 0.00 0.00 60 1014.2
20220627102539 67 142 1.0 5.0 0.00 0.00 0.00 60 1014.2
20220627102036 67 142 2.0 5.0 0.00 0.00 0.00 60 1014.2
20220627101556 67 143 1.0 4.0 0.00 0.00 0.00 61 1014.2
20220627101037 68 144 1.0 4.0 0.00 0.00 0.00 61 1014.2
20220627100539 68 144 2.0 4.0 0.00 0.00 0.00 61 1014.2
20220627100104 68 144 1.0 3.0 0.00 0.00 0.00 61 1014.2
20220627095540 68 144 1.0 3.0 0.00 0.00 0.00 61 1014.2
20220627095039 68 144 1.0 4.0 0.00 0.00 0.00 60 1014.1
20220627094609 68 144 1.0 4.0 0.00 0.00 0.00 59 1014.1
20220627094039 69 144 1.0 4.0 0.00 0.00 0.00 59 1014.0
20220627093539 69 144 1.0 4.0 0.00 0.00 0.00 58 1014.0
20220627093103 70 144 1.0 4.0 0.00 0.00 0.00 57 1014.1
20220627092542 70 144 1.0 3.0 0.00 0.00 0.00 56 1014.0
20220627092039 70 144 1.0 4.0 0.00 0.00 0.00 55 1013.9
20220627091559 71 0 1.0 7.0 0.00 0.00 0.00 55 1013.8
20220627091040 71 143 4.0 7.0 0.00 0.00 0.00 55 1013.8
20220627090541 71 153 2.0 5.0 0.00 0.00 0.00 55 1013.7
20220627090102 71 143 2.0 5.0 0.00 0.00 0.00 55 1013.7
20220627085538 71 143 1.0 4.0 0.00 0.00 0.00 54 1013.7
20220627085038 71 143 2.0 4.0 0.00 0.00 0.00 54 1013.7
20220627084558 71 143 1.0 4.0 0.00 0.00 0.00 53 1013.7
20220627084041 71 143 1.0 4.0 0.00 0.00 0.00 53 1013.7
20220627083538 71 0 1.0 3.0 0.00 0.00 0.00 53 1013.6
20220627083054 71 0 1.0 2.0 0.00 0.00 0.00 53 1013.6
20220627082540 72 142 1.0 2.0 0.00 0.00 0.00 53 1013.6
20220627082037 72 142 0.0 3.0 0.00 0.00 0.00 52 1013.5
20220627081554 72 0 1.0 3.0 0.00 0.00 0.00 52 1013.5
20220627081039 72 142 1.0 2.0 0.00 0.00 0.00 52 1013.5
20220627080538 72 0 0.0 2.0 0.00 0.00 0.00 52 1013.5
20220627080103 73 142 0.0 2.0 0.00 0.00 0.00 51 1013.6
20220627075538 73 0 0.0 1.0 0.00 0.00 0.00 51 1013.6
20220627075037 73 0 0.0 4.0 0.00 0.00 0.00 50 1013.6
20220627074556 74 0 2.0 4.0 0.00 0.00 0.00 49 1013.6
20220627074039 74 141 1.0 2.0 0.00 0.00 0.00 50 1013.6
20220627073538 74 141 1.0 3.0 0.00 0.00 0.00 49 1013.6
20220627073054 74 141 1.0 4.0 0.00 0.00 0.00 49 1013.6
20220627072541 75 141 2.0 4.0 0.00 0.00 0.00 48 1013.6
20220627072040 75 141 0.0 2.0 0.00 0.00 0.00 47 1013.6
20220627071600 75 141 0.0 4.0 0.00 0.00 0.00 47 1013.7
20220627071040 75 141 2.0 4.0 0.00 0.00 0.00 46 1013.6
20220627070539 76 141 1.0 4.0 0.00 0.00 0.00 46 1013.7
20220627070105 76 0 1.0 4.0 0.00 0.00 0.00 45 1013.6
20220627065542 76 141 1.0 4.0 0.00 0.00 0.00 44 1013.6
20220627065044 76 141 2.0 5.0 0.00 0.00 0.00 44 1013.7
20220627064634 76 142 2.0 5.0 0.00 0.00 0.00 43 1013.6
20220627064040 77 139 2.0 5.0 0.00 0.00 0.00 42 1013.7
20220627063543 77 142 1.0 4.0 0.00 0.00 0.00 41 1013.7
20220627063104 77 142 1.0 5.0 0.00 0.00 0.00 41 1013.7
20220627062539 78 0 2.0 5.0 0.00 0.00 0.00 40 1013.7
20220627062039 78 138 2.0 4.0 0.00 0.00 0.00 40 1013.8
20220627061557 78 138 2.0 4.0 0.00 0.00 0.00 40 1013.7
20220627061040 79 138 0.0 4.0 0.00 0.00 0.00 39 1013.8
20220627060539 79 138 2.0 5.0 0.00 0.00 0.00 40 1013.8
20220627060107 79 138 2.0 5.0 0.00 0.00 0.00 40 1013.7
20220627055539 80 141 2.0 5.0 0.00 0.00 0.00 41 1013.7
20220627055039 80 143 2.0 8.0 0.00 0.00 0.00 41 1013.6
20220627054607 81 142 4.0 8.0 0.00 0.00 0.00 41 1013.6
20220627054041 81 154 3.0 8.0 0.00 0.00 0.00 40 1013.7
20220627053542 81 156 3.0 7.0 0.00 0.00 0.00 40 1013.6
20220627053110 81 149 2.0 5.0 0.00 0.00 0.00 39 1013.6
20220627052543 81 142 3.0 5.0 0.00 0.00 0.00 39 1013.6
20220627052041 81 142 3.0 5.0 0.00 0.00 0.00 38 1013.6
20220627051604 81 140 2.0 7.0 0.00 0.00 0.00 39 1013.5
20220627051038 81 140 3.0 7.0 0.00 0.00 0.00 39 1013.4
20220627050541 81 135 3.0 6.0 0.00 0.00 0.00 40 1013.4
20220627050100 81 146 2.0 6.0 0.00 0.00 0.00 44 1013.3
20220627045540 82 146 2.0 5.0 0.00 0.00 0.00 43 1013.2
20220627045040 82 175 1.0 4.0 0.00 0.00 0.00 43 1013.1
20220627044603 83 0 0.0 2.0 0.00 0.00 0.00 44 1013.1
20220627044043 83 175 1.0 3.0 0.00 0.00 0.00 43 1013.0
20220627043540 84 175 0.0 3.0 0.00 0.00 0.00 42 1013.0
20220627043105 84 175 2.0 3.0 0.00 0.00 0.00 41 1013.0
20220627042540 85 175 1.0 3.0 0.00 0.00 0.00 40 1012.9
20220627042038 85 175 0.0 2.0 0.00 0.00 0.00 39 1012.8
20220627041604 86 175 0.0 2.0 0.00 0.00 0.00 38 1012.7
20220627041041 87 175 0.0 2.0 0.00 0.00 0.00 37 1012.6
20220627040539 87 175 0.0 4.0 0.00 0.00 0.00 35 1012.7
20220627040101 88 0 0.0 4.0 0.00 0.00 0.00 35 1012.5
20220627035541 88 175 1.0 3.0 0.00 0.00 0.00 34 1012.5
20220627035042 89 175 1.0 3.0 0.00 0.00 0.00 33 1012.5
20220627034609 89 175 1.0 4.0 0.00 0.00 0.00 33 1012.4
20220627034040 89 175 1.0 6.0 0.00 0.00 0.00 32 1012.4
20220627033540 90 175 2.0 6.0 0.00 0.00 0.00 32 1012.3
20220627033058 91 0 0.0 2.0 0.00 0.00 0.00 34 1012.3
20220627032539 92 177 0.0 1.0 0.00 0.00 0.00 32 1012.3
20220627032042 92 0 0.0 1.0 0.00 0.00 0.00 35 1012.4
20220627031604 93 177 0.0 3.0 0.00 0.00 0.00 34 1012.4
20220627031044 94 0 0.0 3.0 0.00 0.00 0.00 34 1012.4
20220627030544 94 0 0.0 3.0 0.00 0.00 0.00 33 1012.4
20220627030110 95 0 1.0 4.0 0.00 0.00 0.00 32 1012.4
20220627025540 95 176 0.0 4.0 0.00 0.00 0.00 28 1012.4
20220627025039 96 176 0.0 2.0 0.00 0.00 0.00 30 1012.4
20220627024606 96 176 0.0 3.0 0.00 0.00 0.00 29 1012.5
20220627024039 97 176 1.0 5.0 0.00 0.00 0.00 26 1012.4
20220627023540 98 176 1.0 5.0 0.00 0.00 0.00 23 1012.5
20220627023103 98 172 1.0 3.0 0.00 0.00 0.00 23 1012.4
20220627022541 98 172 1.0 5.0 0.00 0.00 0.00 22 1012.5
20220627022042 98 0 0.0 5.0 0.00 0.00 0.00 20 1012.5
20220627021556 98 172 1.0 4.0 0.00 0.00 0.00 24 1012.5
20220627021042 98 0 0.0 5.0 0.00 0.00 0.00 23 1012.4
20220627020540 99 0 1.0 5.0 0.00 0.00 0.00 20 1012.4
20220627020057 99 159 1.0 5.0 0.00 0.00 0.00 20 1012.4
20220627015538 99 159 1.0 6.0 0.00 0.00 0.00 19 1012.4
20220627015045 99 170 2.0 6.0 0.00 0.00 0.00 19 1012.4
20220627014559 99 161 1.0 6.0 0.00 0.00 0.00 21 1012.3
20220627014042 99 181 1.0 6.0 0.00 0.00 0.00 19 1012.4
20220627013540 99 191 1.0 5.0 0.00 0.00 0.00 19 1012.3
20220627013109 100 199 2.0 7.0 0.00 0.00 0.00 19 1012.3
20220627012541 99 211 2.0 7.0 0.00 0.00 0.00 19 1012.4
20220627012044 99 225 2.0 6.0 0.00 0.00 0.00 19 1012.4
20220627011608 99 224 2.0 6.0 0.00 0.00 0.00 19 1012.3
20220627011039 99 212 1.0 6.0 0.00 0.00 0.00 18 1012.3
20220627010539 99 0 1.0 6.0 0.00 0.00 0.00 19 1012.3
20220627010102 99 178 2.0 6.0 0.00 0.00 0.00 18 1012.3
20220627005539 99 176 2.0 8.0 0.00 0.00 0.00 18 1012.4
20220627005039 99 187 4.0 8.0 0.00 0.00 0.00 19 1012.5
20220627004608 100 227 1.0 9.0 0.00 0.00 0.00 21 1012.5
20220627004042 100 229 3.0 9.0 0.00 0.00 0.00 20 1012.4
20220627003538 100 175 2.0 7.0 0.00 0.00 0.00 21 1012.5
20220627003055 100 0 2.0 7.0 0.00 0.00 0.00 20 1012.5
20220627002540 100 224 1.0 10.0 0.00 0.00 0.00 24 1012.5
20220627002041 100 233 1.0 10.0 0.00 0.00 0.00 22 1012.6
20220627001606 100 229 3.0 10.0 0.00 0.00 0.00 23 1012.6
20220627001040 100 227 0.0 6.0 0.00 0.00 0.00 22 1012.7
20220627000539 100 0 3.0 7.0 0.00 0.00 0.00 21 1012.7
20220627000059 100 180 3.0 9.0 0.00 0.00 0.00 21 1012.7
20220626235539 100 178 2.0 9.0 0.00 0.00 0.00 21 1012.7
20220626235039 100 182 4.0 9.0 0.00 0.00 0.00 22 1012.8
20220626234606 100 0 2.0 7.0 0.00 0.00 0.00 20 1012.9
20220626234039 100 184 1.0 7.0 0.00 0.00 0.00 21 1012.9
20220626233540 99 180 2.0 8.0 0.00 0.00 0.00 20 1013.0
20220626233102 99 198 3.0 8.0 0.00 0.00 0.00 21 1013.0
20220626232541 99 227 3.0 8.0 0.00 0.00 0.00 23 1013.0
20220626232044 99 232 4.0 8.0 0.00 0.00 0.00 22 1013.1
20220626231612 99 225 2.0 11.0 0.00 0.00 0.00 22 1013.2
20220626231040 99 215 4.0 11.0 0.00 0.00 0.00 22 1013.2
20220626230536 99 179 4.0 11.0 0.00 0.00 0.00 21 1013.3
20220626230108 98 229 4.0 11.0 0.00 0.00 0.00 23 1013.3
20220626225541 99 234 4.0 11.0 0.00 0.00 0.00 24 1013.3
20220626225039 99 221 2.0 10.0 0.00 0.00 0.00 19 1013.3
20220626224603 98 182 3.0 10.0 0.00 0.00 0.00 22 1013.3
20220626224042 98 226 4.0 9.0 0.00 0.00 0.00 21 1013.4
20220626223540 98 0 3.0 11.0 0.00 0.00 0.00 21 1013.4
20220626223126 97 232 5.0 11.0 0.00 0.00 0.00 22 1013.5
20220626222537 98 197 2.0 9.0 0.00 0.00 0.00 23 1013.5
20220626222041 98 178 2.0 10.0 0.00 0.00 0.00 22 1013.5
20220626221619 98 165 2.0 10.0 0.00 0.00 0.00 20 1013.6
20220626221039 97 226 4.0 9.0 0.00 0.00 0.00 20 1013.5
20220626220544 97 232 2.0 8.0 0.00 0.00 0.00 19 1013.5
20220626220121 97 228 4.0 8.0 0.00 0.00 0.00 19 1013.7
20220626215539 97 232 3.0 8.0 0.00 0.00 0.00 21 1013.6
20220626215039 97 232 3.0 9.0 0.00 0.00 0.00 17 1013.6
20220626214604 96 231 4.0 9.0 0.00 0.00 0.00 19 1013.6
20220626214040 96 234 3.0 9.0 0.00 0.00 0.00 24 1013.7
20220626213543 95 236 4.0 9.0 0.00 0.00 0.00 23 1013.7
20220626213116 96 228 3.0 7.0 0.00 0.00 0.00 21 1013.9
20220626212540 95 196 2.0 9.0 0.00 0.00 0.00 19 1013.8
20220626212040 95 179 4.0 9.0 0.00 0.00 0.00 26 1013.8
20220626211553 95 179 3.0 10.0 0.00 0.00 0.00 24 1013.8
20220626211037 95 0 3.0 10.0 0.00 0.00 0.00 25 1013.8
20220626210540 94 173 3.0 11.0 0.00 0.00 0.00 29 1013.9
20220626210058 93 227 5.0 11.0 0.00 0.00 0.00 31 1014.0
20220626205537 94 227 4.0 11.0 0.00 0.00 0.00 28 1014.0
20220626205037 93 225 4.0 9.0 0.00 0.00 0.00 29 1014.0
20220626204557 93 228 4.0 9.0 0.00 0.00 0.00 28 1014.1
20220626204040 93 232 4.0 11.0 0.00 0.00 0.00 33 1014.1
20220626203537 93 227 4.0 11.0 0.00 0.00 0.00 32 1014.1
20220626203106 92 222 3.0 7.0 0.00 0.00 0.00 34 1014.1
20220626202536 92 227 3.0 9.0 0.00 0.00 0.00 34 1014.1
20220626202037 92 236 4.0 9.0 0.00 0.00 0.00 34 1014.1
20220626201606 92 228 3.0 7.0 0.00 0.00 0.00 35 1014.2
20220626201037 92 169 2.0 11.0 0.00 0.00 0.00 34 1014.2
20220626200538 91 187 3.0 11.0 0.00 0.00 0.00 33 1014.4
20220626200052 91 188 4.0 10.0 0.00 0.00 0.00 35 1014.3
20220626195537 91 202 3.0 9.0 0.00 0.00 0.00 35 1014.4
20220626195040 91 0 2.0 10.0 0.00 0.00 0.00 35 1014.4
20220626194606 90 227 4.0 10.0 0.00 0.00 0.00 35 1014.5
20220626194038 91 198 2.0 7.0 0.00 0.00 0.00 35 1014.5
20220626193541 90 240 3.0 8.0 0.00 0.00 0.00 35 1014.5
20220626193110 89 229 2.0 10.0 0.00 0.00 0.00 35 1014.5
20220626192539 89 228 5.0 10.0 0.00 0.00 0.00 36 1014.5
20220626192040 89 213 2.0 7.0 0.00 0.00 0.00 37 1014.5
20220626191609 89 230 2.0 7.0 0.00 0.00 0.00 34 1014.5
20220626191040 88 228 3.0 10.0 0.00 0.00 0.00 37 1014.7
20220626190538 88 232 3.0 10.0 0.00 0.00 0.00 35 1014.7
20220626190110 88 231 3.0 8.0 0.00 0.00 0.00 35 1014.7
20220626185537 88 226 2.0 8.0 0.00 0.00 0.00 37 1014.7
20220626185040 88 201 2.0 8.0 0.00 0.00 0.00 34 1014.8
20220626184559 88 171 2.0 8.0 0.00 0.00 0.00 33 1014.8
20220626184041 88 180 3.0 8.0 0.00 0.00 0.00 31 1014.8
20220626183536 88 0 3.0 8.0 0.00 0.00 0.00 31 1014.8
20220626183106 88 223 3.0 7.0 0.00 0.00 0.00 35 1014.7
20220626182538 87 194 2.0 7.0 0.00 0.00 0.00 31 1014.7
20220626182038 87 223 1.0 7.0 0.00 0.00 0.00 36 1014.7
20220626181554 86 222 2.0 7.0 0.00 0.00 0.00 34 1014.7
20220626181037 86 205 3.0 7.0 0.00 0.00 0.00 37 1014.8
20220626180540 85 228 2.0 7.0 0.00 0.00 0.00 36 1014.7
20220626180107 86 236 1.0 7.0 0.00 0.00 0.00 37 1014.7
20220626175540 85 184 1.0 7.0 0.00 0.00 0.00 37 1014.7
20220626175043 86 155 1.0 7.0 0.00 0.00 0.00 36 1014.7
20220626174555 85 0 2.0 7.0 0.00 0.00 0.00 36 1014.7
20220626174039 85 256 1.0 6.0 0.00 0.00 0.00 41 1014.8
20220626173540 84 267 1.0 7.0 0.00 0.00 0.00 43 1014.7
20220626173100 84 0 2.0 7.0 0.00 0.00 0.00 41 1014.7
20220626172536 84 0 1.0 5.0 0.00 0.00 0.00 42 1014.5
20220626172042 84 197 0.0 5.0 0.00 0.00 0.00 38 1014.6
20220626171601 84 195 1.0 4.0 0.00 0.00 0.00 38 1014.6
20220626171036 84 188 0.0 5.0 0.00 0.00 0.00 39 1014.6
20220626170541 83 0 0.0 5.0 0.00 0.00 0.00 39 1014.5
20220626170059 83 186 2.0 4.0 0.00 0.00 0.00 39 1014.6
20220626165536 83 190 0.0 3.0 0.00 0.00 0.00 39 1014.6
20220626165039 83 0 1.0 3.0 0.00 0.00 0.00 36 1014.6
20220626164557 82 0 0.0 2.0 0.00 0.00 0.00 38 1014.5
20220626164039 82 0 0.0 2.0 0.00 0.00 0.00 39 1014.6
20220626163537 82 0 0.0 3.0 0.00 0.00 0.00 38 1014.6
20220626163059 82 211 0.0 3.0 0.00 0.00 0.00 41 1014.6
20220626162542 81 0 0.0 4.0 0.00 0.00 0.00 41 1014.6
20220626162041 80 0 0.0 4.0 0.00 0.00 0.00 42 1014.7
20220626161605 80 210 1.0 4.0 0.00 0.00 0.00 41 1014.7
20220626161040 80 209 0.0 3.0 0.00 0.00 0.00 41 1014.7
20220626160537 79 209 0.0 6.0 0.00 0.00 0.00 42 1014.7
20220626160052 79 0 1.0 6.0 0.00 0.00 0.00 42 1014.7
20220626155538 79 209 0.0 3.0 0.00 0.00 0.00 44 1014.8
20220626155039 78 0 0.0 5.0 0.00 0.00 0.00 42 1014.7
20220626154605 78 210 0.0 5.0 0.00 0.00 0.00 43 1014.7
20220626154038 78 0 0.0 2.0 0.00 0.00 0.00 42 1014.7
20220626153541 78 0 0.0 2.0 0.00 0.00 0.00 42 1014.7
20220626153103 79 0 0.0 2.0 0.00 0.00 0.00 43 1014.7
20220626152538 78 0 0.0 3.0 0.00 0.00 0.00 42 1014.6
20220626152039 77 0 1.0 3.0 0.00 0.00 0.00 42 1014.6
20220626151601 76 136 1.0 3.0 0.00 0.00 0.00 42 1014.5
20220626151038 76 136 1.0 3.0 0.00 0.00 0.00 43 1014.5
20220626150539 75 140 0.0 4.0 0.00 0.00 0.00 45 1014.6
20220626150058 74 140 0.0 4.0 0.00 0.00 0.00 46 1014.4
20220626145538 73 140 0.0 3.0 0.00 0.00 0.00 47 1014.5
20220626145039 72 0 0.0 3.0 0.00 0.00 0.00 48 1014.4
20220626144602 71 140 1.0 3.0 0.00 0.00 0.00 48 1014.4
20220626144039 71 140 1.0 3.0 0.00 0.00 0.00 48 1014.4
20220626143537 71 140 0.0 3.0 0.00 0.00 0.00 49 1014.4
20220626143053 70 140 1.0 2.0 0.00 0.00 0.00 48 1014.3
20220626142539 70 140 0.0 4.0 0.00 0.00 0.00 49 1014.2
20220626142040 70 0 2.0 4.0 0.00 0.00 0.00 49 1014.2
20220626141606 70 140 1.0 3.0 0.00 0.00 0.00 50 1014.1
20220626141038 69 0 0.0 3.0 0.00 0.00 0.00 52 1014.1
20220626140543 68 0 1.0 3.0 0.00 0.00 0.00 53 1014.0
20220626140057 67 140 0.0 3.0 0.00 0.00 0.00 54 1014.1
20220626135539 66 140 0.0 4.0 0.00 0.00 0.00 55 1013.9
20220626135040 65 140 1.0 4.0 0.00 0.00 0.00 57 1013.9
20220626134546 64 151 0.0 0.0 0.00 0.00 0.00 63 1013.9
20220626134039 64 0 0.0 0.0 0.00 0.00 0.00 64 1013.7
20220626133539 64 0 0.0 0.0 0.00 0.00 0.00 65 1013.8
20220626133101 64 0 0.0 2.0 0.00 0.00 0.00 65 1013.7
20220626132539 63 0 0.0 2.0 0.00 0.00 0.00 61 1013.6
20220626132040 63 0 0.0 0.0 0.00 0.00 0.00 62 1013.6
20220626131601 63 0 0.0 0.0 0.00 0.00 0.00 63 1013.5
20220626131040 63 0 0.0 0.0 0.00 0.00 0.00 64 1013.5
20220626130539 63 0 0.0 0.0 0.00 0.00 0.00 63 1013.3
20220626130050 63 0 0.0 0.0 0.00 0.00 0.00 65 1013.2
20220626125539 64 0 0.0 0.0 0.00 0.00 0.00 64 1013.2
20220626125038 64 0 0.0 0.0 0.00 0.00 0.00 61 1013.2
20220626124602 64 0 0.0 0.0 0.00 0.00 0.00 60 1013.1
20220626124040 64 0 0.0 0.0 0.00 0.00 0.00 60 1013.1